Rochester, NH

7:41 AM EDT on May 23, 2017 (GMT -0400)
Skyhaven

Weather History for KDAW - August, 2012

Change the Weather History Date:

Wednesday, August 1, 2012

  Actual Average (KPSM) Record (KPSM)
Temperature  
Mean Temperature 72 °F -  
Max Temperature 80 °F 78 °F 97 °F (1975)
Min Temperature 66 °F 60 °F 41 °F (1987)
Cooling Degree Days 8    
Growing Degree Days 22 (Base 50)    
Moisture  
Dew Point 67 °F    
Average Humidity 85    
Maximum Humidity 96    
Minimum Humidity 65    
Precipitation  
Precipitation 0.03 in - - ()
Sea Level Pressure  
Sea Level Pressure 29.87 in    
Wind  
Wind Speed 4 mph (SSE)    
Max Wind Speed 9 mph    
Max Gust Speed -    
Visibility 9 miles    
Events Rain , Thunderstorm    
Averages and records for this station are not official NWS values.
T = Trace of Precipitation, MM = Missing Value Source: NWS Daily Summary

Daily Weather History Graph

Daily Weather History Graph

Search for Another Location

Airport or City:

Trip Planner

Search our weather history database for the weather conditions in past years. The results will help you decide how hot, cold, wet, or windy it might be!

Date:

Astronomy

Aug. 01, 2012 Rise Set
Actual Time 5:34 AM EDT 8:05 PM EDT
Civil Twilight 5:01 AM EDT 8:37 PM EDT
Nautical Twilight 4:21 AM EDT 9:17 PM EDT
Astronomical Twilight 3:35 AM EDT 10:02 PM EDT
Moon 7:31 PM EDT (8/1) 5:00 AM EDT (8/1)
Length of Visible Light 15h 35m
Length of Day
14h 30m
Full, 100% of the Moon is Illuminated
Aug 1
Full
Aug 1
Full
Aug 9
Last Quarter
Aug 17
New
Aug 24
First Quarter

Hourly Weather History & Observations

Time (EDT) Temp. Dew Point Humidity Pressure Visibility Wind Dir Wind Speed Gust Speed Precip Events Conditions
12:17 AM 66.2 °F 64.4 °F 94% 29.92 in 7.0 mi NNE 5.8 mph - 0.01 in Rain Light Rain
12:51 AM 66.0 °F 64.9 °F 96% 29.90 in 8.0 mi NNE 4.6 mph - 0.02 in Rain Light Rain
1:51 AM 66.0 °F 64.9 °F 96% 29.88 in 10.0 mi NNW 4.6 mph - 0.01 in Rain Light Rain
2:51 AM 66.0 °F 64.9 °F 96% 29.88 in 10.0 mi Calm Calm - 0.00 in   Overcast
3:51 AM 66.0 °F 64.9 °F 96% 29.86 in 10.0 mi NW 6.9 mph - N/A   Overcast
4:06 AM 66.2 °F 64.4 °F 94% 29.88 in 6.0 mi NW 5.8 mph - N/A   Overcast
4:51 AM 66.0 °F 64.9 °F 96% 29.87 in 9.0 mi NW 5.8 mph - N/A   Overcast
5:30 AM 66.2 °F 64.4 °F 94% 29.89 in 10.0 mi NW 4.6 mph - N/A   Overcast
5:51 AM 66.0 °F 64.9 °F 96% 29.88 in 7.0 mi NW 4.6 mph - N/A   Overcast
6:51 AM 66.0 °F 64.9 °F 96% 29.89 in 10.0 mi Calm Calm - N/A   Overcast
7:28 AM 66.2 °F 64.4 °F 94% 29.90 in 10.0 mi Calm Calm - N/A   Mostly Cloudy
7:42 AM 69.8 °F 64.4 °F 83% 29.90 in 10.0 mi Calm Calm - N/A   Scattered Clouds
7:51 AM 69.1 °F 64.9 °F 87% 29.89 in 10.0 mi Calm Calm - N/A   Scattered Clouds
8:03 AM 69.8 °F 64.4 °F 83% 29.90 in 10.0 mi Calm Calm - N/A   Mostly Cloudy
8:51 AM 69.1 °F 64.9 °F 87% 29.89 in 10.0 mi Calm Calm - N/A   Overcast
9:51 AM 71.1 °F 66.0 °F 84% 29.89 in 10.0 mi SSE 3.5 mph - N/A   Mostly Cloudy
10:00 AM 71.6 °F 66.2 °F 83% 29.90 in 10.0 mi South 5.8 mph - N/A   Mostly Cloudy
10:51 AM 73.0 °F 66.0 °F 79% 29.88 in 10.0 mi SSE 5.8 mph - N/A   Overcast
11:05 AM 75.2 °F 66.2 °F 73% 29.89 in 10.0 mi Variable 3.5 mph - N/A   Mostly Cloudy
11:51 AM 77.0 °F 66.0 °F 69% 29.88 in 10.0 mi Calm Calm - N/A   Overcast
12:47 PM 78.8 °F 66.2 °F 65% 29.87 in 10.0 mi Variable 4.6 mph - N/A   Overcast
12:51 PM 79.0 °F 66.9 °F 66% 29.86 in 10.0 mi SSE 9.2 mph - N/A   Overcast
1:00 PM 78.8 °F 66.2 °F 65% 29.86 in 10.0 mi Variable 3.5 mph - N/A   Overcast
1:12 PM 78.8 °F 66.2 °F 65% 29.86 in 10.0 mi Variable 3.5 mph - N/A   Mostly Cloudy
1:51 PM 78.1 °F 68.0 °F 71% 29.84 in 10.0 mi Variable 3.5 mph - N/A   Overcast
2:06 PM 78.8 °F 68.0 °F 69% 29.85 in 10.0 mi Variable 5.8 mph - N/A   Overcast
2:51 PM 78.1 °F 68.0 °F 71% 29.84 in 10.0 mi Variable 5.8 mph - N/A   Mostly Cloudy
3:51 PM 77.0 °F 68.0 °F 74% 29.83 in 10.0 mi SE 8.1 mph - N/A   Mostly Cloudy
4:23 PM 73.4 °F 66.2 °F 78% 29.85 in 9.0 mi SSE 8.1 mph - 0.00 in Rain , Thunderstorm Light Rain
4:36 PM 71.6 °F 68.0 °F 88% 29.85 in 10.0 mi SE 6.9 mph - 0.00 in   Overcast
4:51 PM 72.0 °F 68.0 °F 87% 29.84 in 10.0 mi SSE 5.8 mph - 0.00 in   Overcast
5:51 PM 73.9 °F 68.0 °F 82% 29.84 in 10.0 mi Variable 6.9 mph - N/A   Mostly Cloudy
6:51 PM 73.0 °F 68.0 °F 84% 29.84 in 10.0 mi South 6.9 mph - N/A   Partly Cloudy
7:27 PM 71.6 °F 68.0 °F 88% 29.85 in 10.0 mi South 4.6 mph - N/A   Mostly Cloudy
7:38 PM 71.6 °F 68.0 °F 88% 29.85 in 10.0 mi SSE 3.5 mph - N/A   Scattered Clouds
7:49 PM 71.6 °F 68.0 °F 88% 29.85 in 10.0 mi South 3.5 mph - N/A   Scattered Clouds
7:51 PM 71.1 °F 69.1 °F 93% 29.84 in 10.0 mi SSE 3.5 mph - N/A   Partly Cloudy
8:08 PM 71.6 °F 69.8 °F 94% 29.85 in 8.0 mi Calm Calm - N/A   Mostly Cloudy
8:26 PM 69.8 °F 68.0 °F 94% 29.85 in 8.0 mi Calm Calm - N/A   Mostly Cloudy
8:33 PM 69.8 °F 68.0 °F 94% 29.85 in 7.0 mi Calm Calm - N/A   Mostly Cloudy
8:51 PM 70.0 °F 68.0 °F 93% 29.84 in 7.0 mi Calm Calm - N/A   Mostly Cloudy
9:51 PM 70.0 °F 68.0 °F 93% 29.85 in 5.0 mi Calm Calm - N/A   Overcast
10:34 PM 69.8 °F 68.0 °F 94% 29.85 in 2.0 mi Calm Calm - N/A   Overcast
11:35 PM 69.8 °F 68.0 °F 94% 29.84 in 2.5 mi Calm Calm - N/A   Overcast